Aérodrome :
LOGIN :

S'inscrire | Disclaimer

   EN    FR    IT 

 










Légende :    VFR   VFR Marginal   IFR   IFR Intensif   IFR Très Intensif
Visi : 
Plafond : 
>= 8 km
>= 3000ft
5 à 8 km
1000 à 3000 ft
1500m à 5 km
500 à 1000 ft
800 à 1500m
200 à 500 ft
< 800m
< 200 ft
Symboles :   Orages  Brouillard  Fortes neiges  Fortes précipitations  Vent > 20 kt
SIGMETs :   Divers  Orages  Givrage  Turbulence  Onde Orograph.  Cendres Volcan.







- Altitude de l'aérodrome : 453 ft
- Code IATA : SBK
- Voir les cartes d'approche


LFRT - St Brieuc Armor

DERNIER METAR :
  • 112130Z AUTO 16009KT 120V190 8000 BKN009 OVC025 07/05 Q1019

METARs EXPIRÉS :
  • 112100Z AUTO 15005KT 070V190 7000 OVC007 07/06 Q1020
  • 112030Z AUTO 18006KT 150V220 7000 OVC007 07/06 Q1020
  • 112000Z AUTO 16010KT 7000 BKN008 OVC220 06/05 Q1019
  • 111930Z AUTO 16008KT 140V200 9000 FEW008 OVC200 06/05 Q1020
  • 111900Z AUTO 17006KT 140V200 8000 NSC 06/05 Q1020

Prévision TAF périmée.
Pas de NOTAMs connus pour ce terrain.



MET'MAP, la Météo Aéronautique d'un coup d'oeil ! - Copyright ORBIFLY Décembre 2007 - Disclaimer

ORBIFLY MET'MAP TEAM :

Programmation & Développement : Alexandra Zaïnal
Conception & Développement : Baudouin d'Aumeries
Co-Programmation & Développement : Marc-Olivier Méhu
Soutien technique & logistique : Manuel Goepfert

Contact : metmap@orbifly.com




SOURCES & CREDITS :

   NOAA